CW5020 Weather Reports


Display with metric or nautical units.
time (UTC)temp
F
wind
direction
speed
MPH
gust
MPH
rain 1hr
in
rain 24hr
in
rain mn
in
humidity
%
barometer
mb
20260503224505 69 210 3.0 12.0 0.00 0.00 0.00 40 1005.7
20260503224007 70 231 2.0 13.0 0.00 0.00 0.00 39 1005.7
20260503223504 70 200 2.0 10.0 0.00 0.00 0.00 41 1005.8
20260503223005 69 242 2.0 8.0 0.00 0.00 0.00 41 1005.8
20260503222007 69 252 1.0 12.0 0.00 0.00 0.00 40 1005.8
20260503221506 69 209 2.0 12.0 0.00 0.00 0.00 41 1005.9
20260503221011 69 225 2.0 10.0 0.00 0.00 0.00 43 1005.9
20260503220505 68 206 2.0 6.0 0.00 0.00 0.00 41 1006.0
20260503220007 67 240 2.0 8.0 0.00 0.00 0.00 41 1006.1
20260503215504 66 206 3.0 13.0 0.00 0.00 0.00 42 1006.0
20260503214506 68 186 3.0 9.0 0.00 0.00 0.00 41 1006.1
20260503214005 68 232 2.0 10.0 0.00 0.00 0.00 41 1006.2
20260503213506 68 219 2.0 18.0 0.00 0.00 0.00 40 1006.2
20260503213006 68 208 3.0 18.0 0.00 0.00 0.00 42 1006.4
20260503212505 67 205 2.0 14.0 0.00 0.00 0.00 41 1006.3
20260503211505 66 220 3.0 10.0 0.00 0.00 0.00 43 1006.7
20260503211004 66 287 3.0 11.0 0.00 0.00 0.00 41 1006.9
20260503210506 66 263 3.0 11.0 0.00 0.00 0.00 42 1007.0
20260503205504 67 215 4.0 15.0 0.00 0.00 0.00 39 1007.1
20260503205006 67 226 4.0 15.0 0.00 0.00 0.00 38 1007.2
20260503204505 67 242 4.0 12.0 0.00 0.00 0.00 40 1007.2
20260503204005 67 227 4.0 12.0 0.00 0.00 0.00 39 1007.3
20260503203007 68 210 4.0 14.0 0.00 0.00 0.00 38 1007.6
20260503202505 68 248 4.0 11.0 0.00 0.00 0.00 39 1007.5
20260503202006 68 193 4.0 12.0 0.00 0.00 0.00 40 1007.7
20260503201007 67 226 4.0 13.0 0.00 0.00 0.00 41 1007.7
20260503200504 66 173 4.0 12.0 0.00 0.00 0.00 40 1007.7
20260503195506 66 252 3.0 12.0 0.00 0.00 0.00 45 1007.8
20260503195010 65 225 3.0 9.0 0.00 0.00 0.00 45 1008.0
20260503194506 65 163 3.0 10.0 0.00 0.00 0.00 47 1008.0
20260503194008 64 220 2.0 10.0 0.00 0.00 0.00 49 1008.1
20260503193011 63 266 3.0 11.0 0.00 0.00 0.00 50 1008.3
20260503192506 63 151 3.0 11.0 0.00 0.00 0.00 48 1008.4
20260503192013 62 206 2.0 11.0 0.00 0.00 0.00 53 1008.4
20260503191508 62 211 2.0 11.0 0.00 0.00 0.00 54 1008.4
20260503190506 61 188 3.0 13.0 0.00 0.00 0.00 53 1008.6
20260503185506 60 169 2.0 10.0 0.00 0.00 0.00 57 1008.7
20260503185005 59 155 2.0 9.0 0.00 0.00 0.00 56 1008.8
20260503184505 59 236 2.0 9.0 0.00 0.00 0.00 58 1009.1
20260503184007 59 204 2.0 9.0 0.00 0.00 0.00 60 1009.2
20260503183506 58 190 2.0 7.0 0.00 0.00 0.00 60 1009.5
20260503182506 56 224 1.0 10.0 0.00 0.00 0.00 64 1009.5
20260503182008 56 213 1.0 10.0 0.00 0.00 0.00 64 1009.6
20260503181506 55 247 1.0 6.0 0.00 0.00 0.00 66 1009.7
20260503181008 55 222 2.0 7.0 0.00 0.00 0.00 63 1009.9
20260503180506 55 178 2.0 6.0 0.00 0.00 0.00 67 1010.0
20260503180005 54 219 1.0 7.0 0.00 0.00 0.00 68 1010.1
20260503175506 54 215 0.0 3.0 0.00 0.00 0.00 70 1010.1
20260503175005 53 155 1.0 3.0 0.00 0.00 0.00 71 1010.2
20260503174505 52 227 1.0 3.0 0.00 0.00 0.00 73 1010.6
20260503174006 52 313 1.0 3.0 0.00 0.00 0.00 74 1010.9
20260503173505 52 198 1.0 3.0 0.00 0.00 0.00 75 1011.1
20260503173007 51 221 1.0 4.0 0.00 0.00 0.00 75 1011.1
20260503172505 51 259 1.0 4.0 0.00 0.00 0.00 77 1011.2
20260503171504 51 242 1.0 6.0 0.00 0.00 0.00 77 1011.9
20260503171004 51 234 1.0 6.0 0.00 0.00 0.00 76 1011.8
20260503151006 54 291 2.0 9.0 0.00 0.00 0.00 57 1013.2
20260503150506 53 275 2.0 7.0 0.00 0.00 0.00 58 1013.2
20260503131004 48 227 1.0 8.0 0.00 0.00 0.00 62 1013.8
20260503090503 43 231 0.0 4.0 0.00 0.00 0.00 62 1014.0
20260503081505 44 210 0.0 0.0 0.00 0.00 0.00 60 1014.0
20260503081005 44 209 0.0 0.0 0.00 0.00 0.00 60 1014.0
20260503080504 44 211 0.0 0.0 0.00 0.00 0.00 60 1014.1
20260503072504 44 249 0.0 0.0 0.00 0.00 0.00 59 1014.2
20260503072005 44 249 0.0 0.0 0.00 0.00 0.00 60 1014.2
20260503071504 44 245 0.0 0.0 0.00 0.00 0.00 59 1014.3
20260503071005 44 245 0.0 0.0 0.00 0.00 0.00 59 1014.3
20260503070504 44 245 0.0 0.0 0.00 0.00 0.00 59 1014.3
20260503055005 44 242 0.0 0.0 0.00 0.00 0.00 58 1015.0
20260503054506 44 242 0.0 0.0 0.00 0.00 0.00 57 1015.0
20260503054008 44 242 0.0 0.0 0.00 0.00 0.00 57 1015.1
20260503053505 44 242 0.0 0.0 0.00 0.00 0.00 57 1015.2
20260503052504 44 244 0.0 0.0 0.00 0.00 0.00 57 1015.1
20260503052007 44 244 0.0 0.0 0.00 0.00 0.00 58 1015.3
20260503051507 44 244 0.0 0.0 0.00 0.00 0.00 57 1015.3
20260503050507 45 244 0.0 0.0 0.00 0.00 0.00 57 1015.3
20260503045505 45 244 0.0 0.0 0.00 0.00 0.00 57 1015.5
20260503045006 45 244 0.0 0.0 0.00 0.00 0.00 57 1015.5
20260503044004 45 244 0.0 0.0 0.00 0.00 0.00 57 1015.5
20260503043505 45 244 0.0 0.0 0.00 0.00 0.00 56 1015.4
20260503043005 45 244 0.0 0.0 0.00 0.00 0.00 55 1015.5
20260503042006 45 244 0.0 0.0 0.00 0.00 0.00 57 1015.7
20260503041505 45 244 0.0 0.0 0.00 0.00 0.00 58 1015.6
20260503040504 45 250 0.0 0.0 0.00 0.00 0.00 57 1015.7
20260503035505 45 250 0.0 0.0 0.00 0.00 0.00 58 1015.8
20260503035006 45 250 0.0 0.0 0.00 0.00 0.00 58 1015.8
20260503034505 45 250 0.0 0.0 0.00 0.00 0.00 59 1015.7
20260503033007 45 250 0.0 0.0 0.00 0.00 0.00 58 1015.6
20260503032005 45 250 0.0 0.0 0.00 0.00 0.00 58 1015.7
20260503031505 45 250 0.0 0.0 0.00 0.00 0.00 58 1015.8
20260503031004 45 250 0.0 0.0 0.00 0.00 0.00 58 1015.8
20260503030504 45 250 0.0 0.0 0.00 0.00 0.00 58 1015.7
20260503030007 45 250 0.0 0.0 0.00 0.00 0.00 58 1015.8
20260503025505 45 250 0.0 0.0 0.00 0.00 0.00 57 1015.9
20260503025005 46 250 0.0 0.0 0.00 0.00 0.00 58 1015.8
20260503024505 46 250 0.0 0.0 0.00 0.00 0.00 56 1015.8
20260503024005 46 250 0.0 0.0 0.00 0.00 0.00 56 1015.7
20260503023504 46 250 0.0 0.0 0.00 0.00 0.00 56 1015.8
20260503023006 46 250 0.0 0.0 0.00 0.00 0.00 55 1015.8
20260503022505 46 250 0.0 0.0 0.00 0.00 0.00 55 1015.8
20260503022005 47 250 0.0 0.0 0.00 0.00 0.00 54 1015.8
20260503021006 47 250 0.0 0.0 0.00 0.00 0.00 52 1015.8
20260503020505 47 250 0.0 0.0 0.00 0.00 0.00 52 1015.8
20260503015505 48 250 0.0 0.0 0.00 0.00 0.00 52 1015.8
20260503015006 48 250 0.0 0.0 0.00 0.00 0.00 52 1015.8
20260503014505 48 250 0.0 0.0 0.00 0.00 0.00 51 1015.7
20260503013007 49 250 0.0 0.0 0.00 0.00 0.00 50 1015.7
20260503012505 49 250 0.0 0.0 0.00 0.00 0.00 50 1015.7
20260503012009 50 250 0.0 0.0 0.00 0.00 0.00 48 1015.7
20260503011506 50 250 0.0 0.0 0.00 0.00 0.00 48 1015.6
20260503011005 50 250 0.0 0.0 0.00 0.00 0.00 46 1015.7
20260503010505 51 250 0.0 0.0 0.00 0.00 0.00 46 1015.7
20260503004505 52 269 0.0 0.0 0.00 0.00 0.00 43 1015.6
20260503004005 52 269 0.0 0.0 0.00 0.00 0.00 43 1015.6
20260503003505 53 269 0.0 1.0 0.00 0.00 0.00 43 1015.6
20260503003006 53 269 0.0 3.0 0.00 0.00 0.00 41 1015.6
20260503002504 53 269 0.0 3.0 0.00 0.00 0.00 41 1015.6
20260503001006 54 259 1.0 3.0 0.00 0.00 0.00 41 1015.6
20260503000505 54 257 2.0 5.0 0.00 0.00 0.00 39 1015.6
20260503000007 54 234 2.0 5.0 0.00 0.00 0.00 38 1015.6
20260502235506 55 254 2.0 5.0 0.00 0.00 0.00 38 1015.6
20260502235007 55 279 1.0 5.0 0.00 0.00 0.00 40 1015.6
20260502234504 55 209 2.0 6.0 0.00 0.00 0.00 40 1015.6
20260502234005 55 194 2.0 7.0 0.00 0.00 0.00 37 1015.7
20260502233504 55 262 2.0 9.0 0.00 0.00 0.00 39 1015.8
20260502233006 56 244 2.0 9.0 0.00 0.00 0.00 38 1015.8
20260502232506 56 286 2.0 7.0 0.00 0.00 0.00 41 1015.9
20260502232005 55 298 1.0 7.0 0.00 0.00 0.00 39 1015.9
20260502231505 55 244 2.0 9.0 0.00 0.00 0.00 37 1015.9
20260502230505 56 229 2.0 8.0 0.00 0.00 0.00 38 1016.0
20260502225507 58 288 2.0 9.0 0.00 0.00 0.00 35 1016.1
20260502225008 58 300 2.0 8.0 0.00 0.00 0.00 36 1016.0